#timestamp,LO_Frequency,Hit,StdDev 
1618938015.5,286047001.1,N
1618938035.3,286046997.0,N
1618938055.1,286046996.6,N
1618938075.9,286046998.3,N
1618938095.7,286047000.3,N
1618938115.5,286047000.4,N
1618938135.4,286047001.3,N
1618938155.2,286047001.0,N
1618938175.1,286046998.4,N
1618938176.0,286046998.4,N
1618938195.8,286046998.9,N
1618938215.6,286046998.5,N
1618938235.5,286047001.1,N
1618938255.3,286046999.8,N
1618938275.1,286047003.9,N
1618938295.9,286047004.0,N
1618938315.7,286047001.6,N
1618938335.6,286047003.4,N
1618938355.4,286047006.0,Y
1618938375.2,286047001.7,P
1618938395.1,286047001.4,N
1618938396.0,286047001.4,N
1618938415.8,286047001.8,Y
1618938435.6,286046998.2,P
1618938455.5,286047002.8,N
1618938475.3,286047003.8,N
1618938495.2,286047003.9,N
1618938515.9,286047001.6,N
1618938535.7,286046998.6,N
1618938555.6,286047002.6,N
1618938575.4,286047001.8,N
1618938595.2,286047000.4,N
1618938615.1,286047002.8,N
1618938616.0,286047002.8,N
1618938635.8,286047000.6,N
1618938655.7,286047002.3,N
1618938675.5,286047002.2,N
1618938695.3,286047001.6,N
1618938715.2,286047001.5,N
1618938735.9,286047002.2,N
1618938755.7,286047000.0,N
1618938775.6,286046999.6,N
1618938795.4,286046999.5,N
1618938815.3,286046999.0,N
1618938835.1,286046998.2,N
1618938836.0,286046998.2,N
1618938855.8,286046999.1,N
1618938875.7,286047000.0,N
1618938895.5,286047001.9,N
1618938915.3,286047002.5,N
1618938935.2,286047000.4,N
1618938955.0,286046999.8,N
1618938955.9,286046999.8,N
1618938975.8,286047002.2,N
1618938995.6,286047001.9,N
1618939015.4,286047001.6,N
1618939035.3,286047001.9,N
1618939055.1,286047004.3,Y
1618939075.9,286047003.1,P
1618939095.7,286047005.6,P
1618939115.5,286047001.4,N
1618939135.4,286047000.1,N
1618939155.2,286047000.2,N
1618939175.0,286046998.1,N
1618939175.9,286046998.1,N
1618939195.8,286046997.5,N
1618939215.6,286046998.8,N
1618939235.5,286047002.4,N
1618939255.3,286047002.2,N
1618939275.1,286047001.8,N
1618939295.9,286046998.8,N
1618939315.7,286046998.7,N
1618939365.6,286046998.3,E
1618939375.5,286047000.0,N
1618939395.3,286047003.4,P
1618939415.2,286047004.9,N
1618939435.0,286047002.5,N
1618939435.9,286047002.5,N
1618939455.7,286046999.9,N
1618939475.6,286047000.6,N
1618939495.4,286047000.5,N
1618939515.3,286046998.9,N
1618939535.1,286047002.0,N
1618939536.0,286047002.0,N
1618939555.8,286047000.8,N
1618939575.7,286046998.3,N
1618939595.5,286046998.8,N
1618939615.3,286047000.3,N
1618939635.2,286047004.4,N
1618939655.0,286047004.1,N
1618939655.9,286047004.1,N
1618939675.8,286047004.4,N
1618939695.6,286047003.4,N
1618939715.4,286047002.4,N
1618939735.3,286047002.6,N
1618939755.1,286047002.6,N
1618939775.8,286046998.9,N
1618939795.7,286047001.0,N
1618939815.5,286047000.0,N
1618939835.4,286047001.0,N
1618939855.2,286046999.6,N
1618939875.0,286046999.5,N
1618939875.9,286046999.5,N
1618939895.8,286047001.0,N
1618939915.6,286047002.0,N
1618939935.4,286047001.3,N
1618939985.3,286047003.9,E
1618939995.2,286047002.2,N
1618940015.1,286047000.2,P
1618940016.0,286047000.2,N
1618940035.8,286047002.8,N
1618940055.7,286047002.3,N
1618940075.5,286047002.6,N
1618940095.3,286046999.9,N
1618940115.2,286047002.4,N
1618940135.0,286047001.0,N
1618940135.9,286047001.0,N
1618940155.7,286046996.9,N
1618940175.6,286046999.0,N
1618940195.4,286046998.6,N
1618940215.3,286047000.6,N
1618940235.1,286046998.9,N
1618940255.8,286046995.8,N
1618940275.7,286046997.6,N
1618940295.5,286046999.3,N
1618940315.4,286047001.0,N
1618940335.2,286046999.4,N
1618940355.0,286046997.4,N
1618940355.9,286046997.4,N
1618940375.8,286046996.2,N
1618940395.6,286046995.6,N
1618940415.4,286046997.9,N
1618940435.3,286046996.9,N
1618940455.1,286046998.3,N
1618940475.9,286046998.3,N
1618940495.7,286046998.2,N
1618940515.5,286046999.1,N
1618940535.4,286046998.7,N
1618940555.2,286046998.2,N
1618940575.0,286046997.6,N
1618940575.9,286046997.6,N
1618940595.8,286046998.6,N
1618940615.6,286046998.4,N
1618940635.5,286046997.3,N
1618940655.3,286046998.4,N
1618940675.1,286046999.0,N
1618940695.9,286046996.8,N
1618940715.7,286046996.8,N
1618940735.5,286046997.7,N
1618940755.4,286046997.3,N
1618940775.2,286046998.3,N
1618940795.1,286046996.8,N
1618940796.0,286046996.8,N
1618940815.8,286046997.8,N
1618940835.6,286046998.1,N
1618940855.5,286046998.6,N
1618940875.3,286046998.8,N
1618940895.1,286046997.1,Y
1618940915.9,286047000.4,P
1618940935.7,286046998.7,N
1618940955.6,286046998.8,N
1618940975.4,286046999.5,N
1618940995.2,286046999.9,N
1618941015.1,286047000.3,N
1618941016.0,286047000.3,N
1618941035.8,286047002.1,N
1618941055.7,286047006.0,Y
1618941075.5,286047005.8,P
1618941095.3,286047005.3,N
1618941115.2,286047007.3,N
1618941135.0,286047005.3,N
1618941135.9,286047005.3,N
1618941155.7,286047003.3,N
1618941175.6,286047004.1,N
1618941195.4,286047002.3,N
1618941215.3,286047002.2,N
1618941235.1,286046999.8,N
1618941236.0,286046999.8,N
1618941255.8,286047001.3,N
1618941275.7,286047002.6,N
1618941295.5,286047002.0,N
1618941315.3,286046999.8,N
1618941335.2,286047002.5,N
1618941355.0,286047001.9,N
1618941355.9,286047001.9,N
1618941375.8,286047002.9,N
1618941395.6,286047003.4,N
1618941415.4,286047003.7,N
1618941435.3,286047001.3,N
1618941455.1,286047003.5,N
1618941475.9,286047003.0,N
1618941495.7,286047004.7,N
1618941515.5,286047002.9,N
1618941535.4,286047002.9,N
1618941555.2,286047005.3,N
1618941575.0,286047004.0,N
1618941575.9,286047004.0,N
1618941595.8,286047005.9,Y
